[[{"header":{"parameterUnit":"m.s-1","parameterCategory":1,"la1":30.2991,"la2":30.254,"lo1":-89.0895,"lo2":-89.0444,"dy":0.0017,"dx":0.0017,"nx":28,"ny":28,"refTime":"2023-10-27T21:00:00:Z","depth":0,"parameterNumber":2,"parameterNumberName":"U-component_of_WINDS"},"data":[0,0,0,0,0,0,0,0,0,0,0,0,0,0,0,0,0,0,0,0,0,0,0,0,0,0,0,0,0,0,0,0,0,0,0,0,0,0,0,0,0,0,0,0,0,0,0,0,0,0,0,0,0,0,0,0,0,0,-2.3136,-2.3135,0,-2.3074,-2.3074,-2.3073,-2.2965,-2.2963,-2.2961,-2.2959,-2.29,-2.2901,-2.2901,0,0,0,0,0,0,0,0,0,0,0,0,0,-2.3165,-2.3165,-2.3136,-2.3135,-2.3134,-2.3075,-2.3074,-2.3073,-2.2965,-2.2963,-2.296,-2.2958,-2.29,-2.2901,-2.2901,0,0,0,0,0,0,0,0,0,0,0,0,0,-2.3133,-2.3165,-2.3136,-2.3073,-2.3067,-2.3075,-2.3074,-2.3073,-2.2966,-2.2962,-2.2959,-2.2956,-2.29,-2.2901,-2.2901,-2.2967,0,0,-2.2903,-2.2903,0,0,0,0,0,0,0,0,-2.3135,-2.3132,-2.3083,-2.3077,-2.307,-2.3024,-2.3062,-2.3037,-2.2966,-2.3004,-2.2959,-2.2955,-2.2944,-2.2941,-2.2936,-2.2964,-2.2961,-2.2903,-2.2903,-2.2903,-2.2904,0,0,0,0,0,0,0,-2.3137,-2.3134,-2.3111,-2.3083,-2.3075,-2.305,-2.3042,-2.3057,-2.2993,-2.3001,-2.2993,-2.2987,-2.294,-2.2936,-2.2934,-2.296,-2.2903,-2.2903,-2.2904,-2.2904,-2.3042,-2.3045,0,0,0,0,0,0,-2.3148,-2.3136,-2.3113,-2.311,-2.3095,-2.3052,-2.3043,-2.3042,-2.2992,-2.2981,-2.2989,-2.2982,-2.2937,-2.2934,-2.2932,-2.3007,-2.2903,-2.2904,-2.2904,-2.3038,-2.3042,-2.3046,0,0,0,0,0,0,-2.3149,-2.3147,-2.3116,-2.3121,-2.3115,-2.3054,-2.3055,-2.3042,-2.3038,-2.2983,-2.2972,-2.2997,-2.2934,-2.2931,-2.2959,-2.3003,-2.2904,-2.2905,-2.3034,-2.304,-2.3044,-2.3157,0,0,0,0,0,0,-2.315,-2.3148,-2.3171,-2.3122,-2.3115,-2.3143,-2.3057,-2.3044,-2.3039,-2.3029,-2.2987,-2.2977,-2.2931,-2.2959,-2.296,-2.3002,-2.2905,-2.303,-2.3037,-2.3043,-2.3149,-2.3165,-2.3179,0,0,0,0,0,-2.3152,-2.3205,-2.3172,-2.317,-2.3142,-2.3146,-2.3142,-2.3086,-2.3043,-2.3066,-2.3032,-2.2979,-2.2998,-2.2963,-2.2963,-2.3006,-2.3027,-2.3035,-2.3042,-2.3143,-2.3162,-2.3179,0,0,0,0,0,0,-2.3261,-2.3198,-2.316,-2.32,-2.3179,-2.3127,-2.3155,-2.3109,-2.3101,-2.3092,-2.3025,-2.3016,-2.3054,-2.3032,-2.2994,-2.3068,-2.3005,-2.3013,-2.3081,-2.3099,-2.3114,-2.3119,-2.2906,0,0,0,0,0,-2.329,-2.3297,-2.3241,-2.3281,-2.3273,-2.3216,-2.3215,-2.3175,-2.3151,-2.3142,-2.3109,-2.3089,-2.3091,-2.3094,-2.3092,-2.3145,-2.3136,-2.3176,-2.3191,-2.3203,-2.3211,-2.3241,-2.3258,-2.3071,-2.307,-2.307,0,0,-2.335,-2.3316,-2.3324,-2.3303,-2.3281,-2.3292,-2.3209,-2.3223,-2.3231,-2.3144,-2.3169,-2.3145,-2.3118,-2.316,-2.3177,-2.3144,-2.3261,-2.3213,-2.3223,-2.3224,-2.325,-2.3268,-2.3284,-2.3076,-2.3075,-2.3074,0,0,-2.3464,-2.3438,-2.3469,-2.345,-2.3419,-2.3381,-2.3389,-2.3345,-2.3325,-2.3349,-2.3285,-2.3294,-2.3298,-2.3282,-2.3275,-2.3386,-2.3338,-2.3388,-2.3467,-2.3496,-2.3511,-2.3524,-2.3565,-2.3581,-2.3396,-2.3396,-2.3396,0,-2.3542,-2.3553,-2.3492,-2.351,-2.3504,-2.3425,-2.3458,-2.3443,-2.3414,-2.3413,-2.3375,-2.338,-2.3356,-2.3395,-2.3422,-2.3418,-2.3427,-2.3392,-2.3513,-2.3525,-2.3537,-2.3576,-2.3591,-2.3402,-2.3401,-2.3401,-2.34,0,-2.3652,-2.3662,-2.3691,-2.3664,-2.3661,-2.3687,-2.3631,-2.3636,-2.3596,-2.3563,-2.359,-2.3559,-2.3551,-2.3557,-2.3519,-2.3591,-2.3572,-2.3525,-2.346,-2.3562,-2.3598,-2.3612,-2.3411,-2.3409,-2.3407,-2.3406,0,0,-2.3833,-2.3773,-2.3785,-2.3773,-2.3734,-2.3741,-2.3765,-2.3756,-2.3762,-2.3745,-2.3765,-2.3771,-2.3728,-2.372,-2.3679,-2.3705,-2.3798,-2.3655,-2.3653,-2.3684,-2.3879,-2.3915,-2.3933,-2.3765,-2.3768,-2.377,-2.3882,0,-2.394,-2.3975,-2.3922,-2.397,-2.3979,-2.3906,-2.3926,-2.3906,-2.3877,-2.3882,-2.3849,-2.3856,-2.3797,-2.3792,-2.3814,-2.3782,-2.3836,-2.3773,-2.3785,-2.3787,-2.3796,-2.3952,-2.399,-2.4097,-2.3895,-2.3897,-2.3899,0,-2.4069,-2.4059,-2.4108,-2.4068,-2.407,-2.4089,-2.4078,-2.4083,-2.406,-2.4037,-2.4029,-2.3981,-2.4003,-2.394,-2.3971,-2.393,-2.3932,-2.3917,-2.392,-2.392,-2.385,-2.3958,-2.4129,-2.4146,-2.392,-2.3918,-2.3917,0,-2.4199,-2.4197,-2.4227,-2.4218,-2.4172,-2.4188,-2.417,-2.4143,-2.4142,-2.4133,-2.4132,-2.4126,-2.4124,-2.4122,-2.4074,-2.4032,-2.4113,-2.4044,-2.4096,-2.4098,-2.4118,-2.4117,-2.4293,-2.4117,-2.4117,-2.4116,-2.4116,0,-2.4325,-2.4359,-2.4284,-2.4303,-2.4339,-2.4278,-2.4316,-2.4291,-2.4268,-2.4282,-2.4219,-2.4234,-2.4169,-2.4178,-2.4141,-2.4174,-2.4173,-2.4157,-2.4147,-2.4163,-2.4166,-2.4165,-2.4157,-2.412,-2.4119,-2.4119,-2.4118,0,-2.4477,-2.4428,-2.4456,-2.441,-2.4399,-2.4428,-2.439,-2.4406,-2.4373,-2.4392,-2.4393,-2.4341,-2.4348,-2.43,-2.4299,-2.4274,-2.4326,-2.4303,-2.4334,-2.4327,-2.4383,-2.4379,-2.4565,-2.4588,-2.4396,-2.4398,-2.4399,0,-2.4561,-2.4585,-2.4542,-2.4546,-2.4531,-2.4538,-2.4537,-2.4479,-2.448,-2.4457,-2.4477,-2.4479,-2.4477,-2.4492,-2.4456,-2.4455,-2.4433,-2.4498,-2.4432,-2.4449,-2.4436,-2.4436,-2.4439,-2.4512,-2.4515,-2.4517,-2.4518,0,-2.4716,-2.4691,-2.4691,-2.4683,-2.4683,-2.4675,-2.4662,-2.467,-2.4607,-2.4613,-2.4619,-2.4617,-2.4616,-2.462,-2.4612,-2.4595,-2.4548,-2.4539,-2.4551,-2.4569,-2.4587,-2.458,-2.4373,-2.4535,-2.4534,-2.4532,-2.4531,-2.4531,-2.4837,-2.4856,-2.4829,-2.4832,-2.4816,-2.4807,-2.482,-2.4789,-2.4793,-2.4786,-2.4752,-2.4765,-2.4744,-2.4728,-2.4717,-2.4727,-2.4696,-2.4714,-2.4718,-2.4724,-2.4735,-2.4585,-2.4726,-2.4725,-2.4725,-2.4724,-2.4724,0,-2.4991,-2.497,-2.4973,-2.4958,-2.4961,-2.4914,-2.4898,-2.4905,-2.4916,-2.49,-2.4899,-2.4908,-2.4912,-2.4876,-2.4876,-2.4892,-2.487,-2.4894,-2.4893,-2.489,-2.4762,-2.4752,-2.4912,-2.4912,-2.4912,-2.4912,-2.4911,-2.4911,-2.5071,-2.5101,-2.5074,-2.5097,-2.5076,-2.5087,-2.5083,-2.5075,-2.5061,-2.5073,-2.5076,-2.5052,-2.5029,-2.5027,-2.5029,-2.5018,-2.5022,-2.5054,-2.5037,-2.4917,-2.4899,-2.4882,-2.4872,-2.5055,-2.5055,-2.5165,-2.5166,-2.5167]},{"header":{"parameterUnit":"m.s-1","parameterCategory":1,"la1":30.2991,"la2":30.254,"lo1":-89.0895,"lo2":-89.0444,"dy":0.0017,"dx":0.0017,"nx":28,"ny":28,"refTime":"2023-10-27T21:00:00:Z","depth":0,"parameterNumber":3,"parameterNumberName":"V-component_of_WINDS"},"data":[0,0,0,0,0,0,0,0,0,0,0,0,0,0,0,0,0,0,0,0,0,0,0,0,0,0,0,0,0,0,0,0,0,0,0,0,0,0,0,0,0,0,0,0,0,0,0,0,0,0,0,0,0,0,0,0,0,0,0.8902,0.8902,0,0.8948,0.8949,0.8949,0.9067,0.9069,0.9072,0.9074,0.9114,0.9113,0.9112,0,0,0,0,0,0,0,0,0,0,0,0,0,0.8908,0.8907,0.8902,0.8902,0.8903,0.8948,0.8949,0.8949,0.9067,0.907,0.9073,0.9076,0.9115,0.9113,0.9111,0,0,0,0,0,0,0,0,0,0,0,0,0,0.8925,0.8907,0.8901,0.8967,0.8973,0.8948,0.8949,0.895,0.9066,0.907,0.9073,0.9077,0.9115,0.9113,0.9111,0.9024,0,0,0.9105,0.9105,0,0,0,0,0,0,0,0,0.8924,0.8924,0.8957,0.8962,0.8969,0.9006,0.8966,0.8974,0.9065,0.903,0.9074,0.9079,0.9074,0.9076,0.9076,0.9026,0.9028,0.9105,0.9104,0.9103,0.9103,0,0,0,0,0,0,0,0.8922,0.8923,0.892,0.8957,0.8965,0.8992,0.8999,0.8968,0.903,0.9034,0.9042,0.9047,0.9079,0.9078,0.9078,0.9028,0.9105,0.9104,0.9102,0.9102,0.8908,0.8905,0,0,0,0,0,0,0.8913,0.8921,0.8918,0.8921,0.8956,0.8989,0.8996,0.899,0.9031,0.9041,0.9043,0.9052,0.9079,0.908,0.908,0.898,0.9103,0.9101,0.91,0.8912,0.8908,0.8903,0,0,0,0,0,0,0.8912,0.8911,0.8917,0.8924,0.8927,0.8985,0.8977,0.8989,0.8989,0.9039,0.905,0.9032,0.9082,0.9083,0.9038,0.8983,0.9101,0.9099,0.8917,0.8911,0.8905,0.8779,0,0,0,0,0,0,0.8912,0.8911,0.8879,0.8922,0.8926,0.8874,0.8974,0.8987,0.8986,0.8998,0.903,0.9039,0.9085,0.904,0.9036,0.8982,0.9097,0.8922,0.8914,0.8907,0.8788,0.8769,0.8753,0,0,0,0,0,0.8912,0.884,0.8877,0.8876,0.8888,0.8871,0.8873,0.893,0.8981,0.8949,0.8982,0.9038,0.8991,0.9034,0.9031,0.8976,0.8926,0.8917,0.8908,0.8796,0.8773,0.8754,0,0,0,0,0,0,0.8785,0.8846,0.8888,0.8829,0.8844,0.8891,0.8852,0.8903,0.8903,0.8913,0.8981,0.8988,0.8933,0.8951,0.8998,0.8894,0.8967,0.8957,0.8883,0.8862,0.8845,0.884,0.9096,0,0,0,0,0,0.8751,0.8735,0.8788,0.873,0.8736,0.8793,0.8788,0.883,0.8848,0.8854,0.8884,0.8897,0.8885,0.8875,0.8867,0.8793,0.88,0.8753,0.8736,0.8721,0.871,0.8671,0.865,0.8874,0.8874,0.8874,0,0,0.8678,0.871,0.8695,0.8706,0.8723,0.8702,0.8797,0.8771,0.8756,0.885,0.8809,0.8831,0.885,0.879,0.8765,0.8803,0.8651,0.871,0.8698,0.8695,0.866,0.8639,0.862,0.8868,0.8869,0.887,0,0,0.8536,0.8559,0.8513,0.8529,0.8555,0.8594,0.8583,0.8623,0.8642,0.8604,0.8674,0.8656,0.8634,0.8645,0.8647,0.8511,0.8563,0.8507,0.8414,0.8375,0.8357,0.8342,0.8291,0.8273,0.8497,0.8496,0.8496,0,0.8441,0.8415,0.8482,0.8452,0.8454,0.8542,0.8495,0.8507,0.8527,0.8526,0.8569,0.8545,0.8564,0.8507,0.8474,0.8474,0.8462,0.8501,0.8355,0.834,0.8327,0.8279,0.826,0.8489,0.849,0.8491,0.8491,0,0.8297,0.8278,0.8238,0.8258,0.8256,0.8217,0.8277,0.8266,0.831,0.8343,0.8303,0.833,0.8328,0.8319,0.836,0.8267,0.829,0.8344,0.8418,0.8297,0.8254,0.8236,0.8479,0.8481,0.8484,0.8485,0,0,0.8071,0.8133,0.8116,0.8127,0.8164,0.8149,0.8114,0.8116,0.8105,0.8117,0.8088,0.8069,0.812,0.8122,0.8166,0.8132,0.8021,0.819,0.8192,0.8155,0.7919,0.7876,0.7854,0.8058,0.8054,0.8052,0.7916,0,0.7935,0.7881,0.7941,0.7874,0.7856,0.7941,0.7911,0.7929,0.796,0.7948,0.7982,0.7966,0.8035,0.8037,0.8008,0.8041,0.7974,0.8052,0.8028,0.8026,0.8017,0.7831,0.7786,0.7656,0.79,0.7897,0.7895,0,0.7768,0.7775,0.7706,0.7748,0.7743,0.7715,0.7721,0.771,0.7732,0.7757,0.7762,0.7816,0.7783,0.7859,0.7814,0.7865,0.786,0.7874,0.7871,0.7867,0.795,0.782,0.7617,0.7596,0.7869,0.7871,0.7873,0,0.7607,0.76,0.7558,0.7564,0.7613,0.7591,0.761,0.7636,0.7634,0.764,0.7638,0.7639,0.7638,0.7637,0.7689,0.774,0.7636,0.7717,0.7653,0.7651,0.7624,0.7624,0.7413,0.7625,0.7626,0.7626,0.7627,0,0.7446,0.7399,0.7486,0.7459,0.741,0.748,0.7429,0.7456,0.7479,0.7458,0.7532,0.751,0.7583,0.7568,0.7609,0.7564,0.7564,0.7581,0.7592,0.7572,0.757,0.7567,0.7575,0.7621,0.7622,0.7623,0.7624,0,0.7256,0.7312,0.7272,0.7323,0.7335,0.7295,0.7338,0.7315,0.7353,0.7325,0.7322,0.738,0.7367,0.7421,0.7416,0.7444,0.7376,0.7403,0.7368,0.7375,0.7308,0.7312,0.7084,0.7057,0.729,0.7287,0.7285,0,0.7148,0.7115,0.7163,0.7156,0.7172,0.7159,0.7158,0.7226,0.7221,0.7245,0.7218,0.7212,0.721,0.7185,0.7225,0.7222,0.7247,0.7168,0.7247,0.7229,0.7243,0.7243,0.7239,0.715,0.7147,0.7145,0.7143,0,0.6949,0.6979,0.6976,0.6982,0.698,0.6987,0.7,0.6989,0.7063,0.7054,0.7043,0.7042,0.7039,0.7031,0.7036,0.7054,0.7109,0.7119,0.7103,0.7081,0.7061,0.7069,0.732,0.7122,0.7125,0.7126,0.7127,0.7128,0.6795,0.6769,0.68,0.6793,0.6811,0.6822,0.6802,0.6839,0.6832,0.6837,0.6878,0.6858,0.6882,0.6896,0.6909,0.6893,0.693,0.6908,0.6902,0.6894,0.6882,0.7067,0.6895,0.6895,0.6896,0.6897,0.6897,0,0.6597,0.6622,0.6616,0.6633,0.6628,0.6686,0.6703,0.6694,0.6677,0.6696,0.6694,0.6681,0.6675,0.6716,0.6714,0.6694,0.6719,0.669,0.669,0.6693,0.685,0.6862,0.667,0.667,0.667,0.667,0.667,0.667,0.6494,0.6453,0.6487,0.6456,0.6481,0.6465,0.647,0.6479,0.6495,0.6478,0.6474,0.6503,0.653,0.6531,0.6527,0.654,0.6534,0.6496,0.6516,0.666,0.6682,0.6703,0.6715,0.6495,0.6495,0.636,0.6359,0.6358]}]]